Location: Lucerne Valley
(34.4439°N, 116.9669°E)
Time: 18:39:44
(UTC-08:00)

N. Korean satellite - Pass Details

Date: 11 October 2017
Orbit: 461 x 513 km, 97.2° (Epoch: 11 December)

Event Time Altitude Azimuth Distance (km) Brightness Sun altitude
Rises 03:24:36 0° 171° (S) 2,567 10.2 -9.3°
Reaches altitude 10° 03:26:41 10° 173° (S) 1,681 9.3 -9.8°
Maximum altitude 03:30:17 75° 258° (WSW) 509 6.8 -10.5°
Drops below altitude 10° 03:33:52 10° 345° (NNW) 1,662 9.5 -11.3°
Sets 03:35:55 0° 347° (NNW) 2,536 10.4 -11.7°
